Preview of NWS' New Version of Forecast
This preview is not operational and should not be used for support decisions.

Regional Weather Roundup (RWR)

Issued by National Weather Service (NWS)

                            
000
ASUS44 KJAN 142110
RWRMS 

MISSISSIPPI HOURLY WEATHER ROUNDUP
NATIONAL WEATHER SERVICE JACKSON MS
400 PM CDT SAT SEP 14 2019

NOTE: "FAIR: INDICATES FEW OR NO CLOUDS BELOW 12,000 FEET WITH NO
SIGNIFICANT WEATHER AND/OR OBSTRUCTIONS TO VISIBILITY.

MSZ001>002-007>008-010>013-018>021-025>028-034>036-142200-
NORTHWEST MISSISSIPPI
  
CITY           SKY/WX    TMP DP  RH WIND       PRES   REMARKS
BATESVILLE     FAIR      95  72  46 VRB5G12   30.10F HX 103           
CLARKSDALE       N/A     95  68  41 NE8       30.10F HX  99           
CLEVELAND      FAIR      96  70  43 E10       30.07F HX 102           
GREENWOOD      FAIR      96  69  41 NE6       30.08F HX 102           
GREENVILLE     FAIR      96  68  39 E5        30.06F HX 101           
OLIVE BRANCH   MOSUNNY   93  64  38 NE6       30.12F HX  95           
OXFORD         FAIR      93  68  43 CALM      30.12F HX  97           
TUNICA           N/A     91  63  38 NE5       30.11F HX  92           
WINONA         FAIR      92  69  47 NE3       30.10F HX  96           
$$

MSZ003>006-009-014>017-022>024-029>033-037>039-142200-
NORTHEAST MISSISSIPPI
  
CITY           SKY/WX    TMP DP  RH WIND       PRES   REMARKS
ABERDEEN       FAIR      91  73  55 N8        30.11F HX 100           
COLUMBUS AFB   FAIR      93  71  48 E9        30.09F HX  99           
CORINTH        FAIR      93  70  46 S3        30.12F HX  99           
GOLDN TRIANGLE FAIR      93  71  48 NE7       30.11F HX 100           
STARKVILLE     FAIR      91  68  46 E5        30.11F HX  95           
TUPELO         FAIR      92  65  40 VRB6      30.12F HX  94           
$$

MSZ040-058-142200-
CENTRAL MISSISSIPPI
  
CITY           SKY/WX    TMP DP  RH WIND       PRES   REMARKS
JACKSON INTL   FAIR      95  64  35 E8        30.07F HX  97           
JACKSON HAWKNS FAIR      94  65  38 SE8       30.08F HX  96           
MADISON        FAIR      91  64  40 E7        30.09S HX  93           
MERIDIAN KEY   FAIR      96  65  35 NE14      30.07F HX  98           
MERIDIAN NAS   FAIR      93  66  40 NE9G17    30.09F HX  96           
RAYMOND          N/A     95  66  38 SE12      30.06F HX  98           
VICKSBURG VKS  CLEAR     97  66  36 VRB6G13   30.05F HX 100           
$$

MSZ059>079-142200-
SOUTH MISSISSIPPI
  
CITY           SKY/WX    TMP DP  RH WIND       PRES   REMARKS
BROOKHAVEN     FAIR      91  66  43 N6        30.09S HX  94           
HATTIESBURG      N/A    N/A N/A N/A MISG      30.06F                  
LAUREL         CLEAR     93  65  40 NE13      30.07F HX  95           
MCCOMB         FAIR      92  65  40 E8        30.06F HX  94           
NATCHEZ        FAIR      95  61  32 E12       30.05F HX  95           
PINE BELT      FAIR      91  66  43 E6        30.08F HX  93           
$$

MSZ080>082-142200-
COASTAL MISSISSIPPI
  
CITY           SKY/WX    TMP DP  RH WIND       PRES   REMARKS
BAY ST LOUIS   MOSUNNY   86  70  58 SE9       30.04F HX  90           
BILOXI         FAIR      91  67  44 E6        30.04F HX  94           
PASCAGOULA     FAIR      92  68  45 NE9       30.04F HX  96           
GULFPORT       FAIR      92  65  40 E12       30.04S HX  94           
$$

LAZ007>009-015>016-023>026-142200-
NORTHEAST LOUISIANA
  
CITY           SKY/WX    TMP DP  RH WIND       PRES   REMARKS
BASTROP        FAIR      96  69  41 CALM      30.06F HX 101           
TALLULAH/VBURG FAIR      98  67  36 E7        30.05F HX 102           
VIDALIA        FAIR      97  59  28 NE13G20   30.03S HX  97           
$$